[[{"header":{"parameterUnit":"m.s-1","parameterCategory":1,"la1":30.2991,"la2":30.254,"lo1":-89.0895,"lo2":-89.0444,"dy":0.0017,"dx":0.0017,"nx":28,"ny":28,"refTime":"2025-08-29T21:00:00:Z","depth":0,"parameterNumber":2,"parameterNumberName":"U-component_of_WINDS"},"data":[0,0,0,0,0,0,0,0,0,0,0,0,0,0,0,0,0,0,0,0,0,0,0,0,0,0,0,0,0,0,0,0,0,0,0,0,0,0,0,0,0,0,0,0,0,0,0,0,0,0,0,0,0,0,0,0,0,0,-4.1878,-4.1877,0,-4.1864,-4.1864,-4.1864,-4.1735,-4.1732,-4.1729,-4.1726,-4.1715,-4.1717,-4.172,0,0,0,0,0,0,0,0,0,0,0,0,0,-4.1794,-4.1796,-4.1878,-4.1877,-4.1877,-4.1864,-4.1864,-4.1864,-4.1736,-4.1732,-4.1728,-4.1724,-4.1714,-4.1717,-4.172,0,0,0,0,0,0,0,0,0,0,0,0,0,-4.1811,-4.1797,-4.1878,-4.1812,-4.1806,-4.1864,-4.1864,-4.1864,-4.1737,-4.1732,-4.1727,-4.1723,-4.1713,-4.1717,-4.1721,-4.1842,0,0,-4.1733,-4.1735,0,0,0,0,0,0,0,0,-4.181,-4.1814,-4.1822,-4.1816,-4.181,-4.1796,-4.183,-4.1856,-4.1738,-4.1763,-4.1726,-4.172,-4.1746,-4.1747,-4.1755,-4.1841,-4.1841,-4.1733,-4.1736,-4.1738,-4.1739,0,0,0,0,0,0,0,-4.1809,-4.1814,-4.1872,-4.1822,-4.1815,-4.1783,-4.178,-4.1835,-4.1782,-4.176,-4.1751,-4.1751,-4.1742,-4.1752,-4.1754,-4.1841,-4.1733,-4.1737,-4.1739,-4.1741,-4.2023,-4.2028,0,0,0,0,0,0,-4.1817,-4.1814,-4.1873,-4.1872,-4.1798,-4.1789,-4.1785,-4.1806,-4.1781,-4.1772,-4.1755,-4.1745,-4.1747,-4.1749,-4.1753,-4.1891,-4.1738,-4.1741,-4.1744,-4.2018,-4.2025,-4.203,0,0,0,0,0,0,-4.1815,-4.1823,-4.1873,-4.184,-4.1844,-4.1795,-4.1819,-4.1808,-4.1817,-4.1777,-4.1767,-4.1775,-4.1743,-4.1747,-4.182,-4.1889,-4.1743,-4.1747,-4.2012,-4.202,-4.2027,-4.217,0,0,0,0,0,0,-4.1814,-4.1824,-4.1869,-4.1842,-4.1846,-4.1941,-4.1823,-4.1811,-4.1824,-4.1811,-4.1792,-4.1785,-4.174,-4.1815,-4.1824,-4.1892,-4.175,-4.2006,-4.2016,-4.2025,-4.2159,-4.2182,-4.2201,0,0,0,0,0,-4.1811,-4.1911,-4.1872,-4.188,-4.1902,-4.1945,-4.1947,-4.1893,-4.183,-4.1875,-4.1849,-4.1785,-4.1881,-4.1823,-4.1833,-4.1903,-4.2001,-4.2013,-4.2024,-4.215,-4.2178,-4.2201,0,0,0,0,0,0,-4.1949,-4.1906,-4.1862,-4.1957,-4.1955,-4.1923,-4.1978,-4.1924,-4.1941,-4.1928,-4.186,-4.1857,-4.194,-4.1929,-4.1866,-4.2018,-4.193,-4.1944,-4.2022,-4.2048,-4.2069,-4.2069,-4.1753,0,0,0,0,0,-4.199,-4.2027,-4.1989,-4.2075,-4.2077,-4.2028,-4.2045,-4.2002,-4.1999,-4.1998,-4.1977,-4.1976,-4.2005,-4.2026,-4.2051,-4.2157,-4.2151,-4.221,-4.2231,-4.2249,-4.2261,-4.2315,-4.234,-4.2068,-4.2067,-4.2067,0,0,-4.2076,-4.2057,-4.2085,-4.2103,-4.2096,-4.2137,-4.2028,-4.2076,-4.2106,-4.2005,-4.2071,-4.2057,-4.2051,-4.2141,-4.2179,-4.2134,-4.2335,-4.2263,-4.2278,-4.2281,-4.2329,-4.2355,-4.2378,-4.2075,-4.2074,-4.2073,0,0,-4.2252,-4.2242,-4.2312,-4.2308,-4.2299,-4.2266,-4.2283,-4.2259,-4.2244,-4.2309,-4.2234,-4.2269,-4.2321,-4.232,-4.2326,-4.25,-4.2442,-4.2511,-4.262,-4.2673,-4.2695,-4.2713,-4.2774,-4.2797,-4.2523,-4.2524,-4.2524,0,-4.236,-4.2417,-4.2355,-4.2407,-4.2417,-4.2326,-4.2396,-4.2395,-4.2396,-4.2405,-4.2354,-4.2416,-4.2407,-4.2494,-4.2536,-4.2545,-4.2562,-4.2512,-4.2696,-4.2715,-4.2731,-4.2788,-4.2811,-4.2532,-4.2531,-4.253,-4.2529,0,-4.2549,-4.259,-4.2647,-4.2648,-4.2664,-4.2726,-4.2673,-4.2697,-4.2653,-4.2626,-4.2693,-4.2678,-4.2697,-4.2715,-4.2674,-4.2796,-4.2768,-4.2708,-4.2618,-4.2766,-4.2819,-4.284,-4.2544,-4.2541,-4.2538,-4.2536,0,0,-4.2812,-4.2776,-4.2799,-4.2797,-4.278,-4.2811,-4.2867,-4.2885,-4.2906,-4.291,-4.2955,-4.3001,-4.2944,-4.2952,-4.2909,-4.2956,-4.3093,-4.289,-4.2889,-4.2927,-4.3225,-4.3269,-4.3295,-4.3054,-4.3058,-4.3062,-4.3225,0,-4.298,-4.3073,-4.3019,-4.3121,-4.3157,-4.3071,-4.312,-4.3115,-4.309,-4.3118,-4.3091,-4.3124,-4.3048,-4.3051,-4.3094,-4.3068,-4.3152,-4.3055,-4.3096,-4.3098,-4.3098,-4.3323,-4.337,-4.3524,-4.3245,-4.3248,-4.3251,0,-4.3189,-4.3199,-4.3304,-4.3277,-4.3291,-4.3336,-4.3346,-4.3374,-4.3366,-4.3345,-4.3353,-4.3298,-4.3352,-4.3264,-4.3337,-4.3272,-4.3286,-4.3275,-4.328,-4.328,-4.3183,-4.3328,-4.3573,-4.3596,-4.3283,-4.328,-4.3278,0,-4.3368,-4.3408,-4.3475,-4.3477,-4.3449,-4.3482,-4.3472,-4.346,-4.3473,-4.3483,-4.3491,-4.3508,-4.3517,-4.3531,-4.3483,-4.3423,-4.3562,-4.347,-4.3545,-4.3547,-4.3577,-4.3576,-4.3826,-4.3589,-4.3589,-4.3588,-4.3588,0,-4.3561,-4.3628,-4.3555,-4.3596,-4.3668,-4.3605,-4.3679,-4.366,-4.3649,-4.3685,-4.3613,-4.3649,-4.3583,-4.3613,-4.3576,-4.3641,-4.3646,-4.363,-4.3619,-4.3636,-4.3638,-4.3643,-4.363,-4.3595,-4.3593,-4.3592,-4.3591,0,-4.3773,-4.3727,-4.3793,-4.3761,-4.3754,-4.3809,-4.378,-4.3817,-4.3787,-4.3834,-4.3841,-4.3795,-4.3825,-4.3778,-4.3805,-4.3779,-4.3869,-4.3842,-4.3871,-4.3863,-4.394,-4.3933,-4.4201,-4.4232,-4.3977,-4.398,-4.3982,0,-4.3898,-4.3947,-4.3919,-4.3936,-4.393,-4.3961,-4.3973,-4.3913,-4.3929,-4.3924,-4.3961,-4.3985,-4.4001,-4.4054,-4.4023,-4.4042,-4.4014,-4.4107,-4.4017,-4.4031,-4.4014,-4.4011,-4.4014,-4.4125,-4.4128,-4.4131,-4.4133,0,-4.4124,-4.4098,-4.4118,-4.4131,-4.4147,-4.4154,-4.4156,-4.4175,-4.4112,-4.4134,-4.4163,-4.4175,-4.42,-4.4225,-4.4236,-4.4226,-4.4169,-4.4162,-4.418,-4.4196,-4.421,-4.4202,-4.392,-4.4156,-4.4153,-4.4152,-4.415,-4.4149,-4.4295,-4.4334,-4.4319,-4.4343,-4.4338,-4.4341,-4.4373,-4.4346,-4.4369,-4.4383,-4.4347,-4.4385,-4.4375,-4.4384,-4.438,-4.4409,-4.4368,-4.4395,-4.4402,-4.4409,-4.442,-4.4207,-4.4411,-4.441,-4.441,-4.4409,-4.4409,0,-4.4516,-4.4502,-4.4525,-4.4528,-4.4548,-4.4491,-4.449,-4.451,-4.4543,-4.4538,-4.4554,-4.4587,-4.4611,-4.4581,-4.4599,-4.4628,-4.4602,-4.4634,-4.4631,-4.4629,-4.4456,-4.4438,-4.4655,-4.4655,-4.4654,-4.4654,-4.4654,-4.4654,-4.4633,-4.4695,-4.4667,-4.4725,-4.4711,-4.4745,-4.4749,-4.4752,-4.4747,-4.4786,-4.4804,-4.4784,-4.4769,-4.4785,-4.4804,-4.4794,-4.4804,-4.4845,-4.4827,-4.4666,-4.4642,-4.4619,-4.4601,-4.4848,-4.4848,-4.4997,-4.4998,-4.4999]},{"header":{"parameterUnit":"m.s-1","parameterCategory":1,"la1":30.2991,"la2":30.254,"lo1":-89.0895,"lo2":-89.0444,"dy":0.0017,"dx":0.0017,"nx":28,"ny":28,"refTime":"2025-08-29T21:00:00:Z","depth":0,"parameterNumber":3,"parameterNumberName":"V-component_of_WINDS"},"data":[0,0,0,0,0,0,0,0,0,0,0,0,0,0,0,0,0,0,0,0,0,0,0,0,0,0,0,0,0,0,0,0,0,0,0,0,0,0,0,0,0,0,0,0,0,0,0,0,0,0,0,0,0,0,0,0,0,0,-3.0838,-3.0839,0,-3.0932,-3.0933,-3.0934,-3.0938,-3.0937,-3.0936,-3.0935,-3.1027,-3.1031,-3.1034,0,0,0,0,0,0,0,0,0,0,0,0,0,-3.0658,-3.0661,-3.0838,-3.0839,-3.0841,-3.0932,-3.0933,-3.0934,-3.0938,-3.0937,-3.0936,-3.0934,-3.1026,-3.103,-3.1035,0,0,0,0,0,0,0,0,0,0,0,0,0,-3.0742,-3.0663,-3.0838,-3.0854,-3.0856,-3.0931,-3.0933,-3.0935,-3.0938,-3.0937,-3.0935,-3.0934,-3.1025,-3.103,-3.1035,-3.1101,0,0,-3.1051,-3.1053,0,0,0,0,0,0,0,0,-3.0738,-3.0749,-3.085,-3.0853,-3.0855,-3.0922,-3.0904,-3.099,-3.0939,-3.0907,-3.0935,-3.0933,-3.0993,-3.1001,-3.1022,-3.1105,-3.1109,-3.1052,-3.1055,-3.1057,-3.1059,0,0,0,0,0,0,0,-3.0732,-3.0745,-3.0875,-3.0851,-3.0855,-3.0854,-3.0865,-3.092,-3.0958,-3.091,-3.091,-3.0921,-3.0994,-3.1017,-3.1024,-3.111,-3.1052,-3.1056,-3.1059,-3.1061,-3.1249,-3.1251,0,0,0,0,0,0,-3.0723,-3.074,-3.0872,-3.0878,-3.0791,-3.0859,-3.087,-3.0902,-3.0958,-3.0965,-3.0923,-3.0921,-3.1009,-3.1018,-3.1028,-3.1106,-3.1057,-3.1062,-3.1065,-3.1247,-3.1249,-3.1251,0,0,0,0,0,0,-3.072,-3.0735,-3.0868,-3.0809,-3.0826,-3.0864,-3.0899,-3.0905,-3.0927,-3.0968,-3.0974,-3.0939,-3.1008,-3.102,-3.1082,-3.111,-3.1064,-3.1069,-3.1245,-3.1248,-3.125,-3.1265,0,0,0,0,0,0,-3.0714,-3.0734,-3.076,-3.081,-3.0829,-3.0923,-3.0901,-3.0908,-3.0937,-3.0936,-3.0985,-3.0991,-3.1008,-3.1074,-3.1087,-3.1116,-3.1073,-3.1242,-3.1246,-3.1249,-3.1262,-3.1268,-3.1273,0,0,0,0,0,-3.0708,-3.076,-3.0762,-3.0777,-3.0863,-3.0924,-3.0935,-3.0954,-3.0939,-3.0965,-3.099,-3.099,-3.1105,-3.1081,-3.1095,-3.1126,-3.1241,-3.1245,-3.1249,-3.126,-3.1267,-3.1272,0,0,0,0,0,0,-3.0712,-3.0767,-3.0769,-3.0839,-3.0877,-3.0925,-3.0958,-3.0961,-3.1003,-3.1,-3.1021,-3.1032,-3.1093,-3.1116,-3.1088,-3.1191,-3.1171,-3.1178,-3.1174,-3.1181,-3.1186,-3.1178,-3.1078,0,0,0,0,0,-3.0721,-3.0768,-3.0813,-3.087,-3.0889,-3.092,-3.0948,-3.0959,-3.0998,-3.1014,-3.1044,-3.1082,-3.1126,-3.1155,-3.1198,-3.1266,-3.1275,-3.1294,-3.1299,-3.1303,-3.1309,-3.1344,-3.1352,-3.1265,-3.1265,-3.1265,0,0,-3.0741,-3.0776,-3.0804,-3.0872,-3.0903,-3.0948,-3.0934,-3.0983,-3.1017,-3.1021,-3.1081,-3.1105,-3.1148,-3.1212,-3.1242,-3.1233,-3.1335,-3.1308,-3.1311,-3.1315,-3.1349,-3.1357,-3.1365,-3.1268,-3.1267,-3.1267,0,0,-3.0799,-3.0831,-3.0882,-3.0913,-3.096,-3.098,-3.0992,-3.1039,-3.1055,-3.1116,-3.112,-3.1159,-3.1236,-3.1266,-3.1291,-3.1359,-3.1359,-3.1372,-3.1399,-3.1433,-3.144,-3.1446,-3.1469,-3.1477,-3.1378,-3.1378,-3.1378,0,-3.0816,-3.0887,-3.0907,-3.0957,-3.0985,-3.0992,-3.1042,-3.1071,-3.1129,-3.1148,-3.1137,-3.1233,-3.1262,-3.1333,-3.1349,-3.137,-3.1383,-3.1366,-3.1438,-3.1444,-3.145,-3.1472,-3.148,-3.1379,-3.1379,-3.1379,-3.1379,0,-3.0905,-3.0954,-3.0989,-3.1045,-3.1078,-3.1127,-3.1154,-3.1184,-3.1192,-3.1213,-3.1273,-3.1309,-3.1359,-3.1377,-3.1385,-3.1448,-3.1441,-3.1434,-3.1414,-3.146,-3.148,-3.1489,-3.1381,-3.138,-3.138,-3.138,0,0,-3.0968,-3.1035,-3.1047,-3.1072,-3.1124,-3.1161,-3.121,-3.1259,-3.1284,-3.1323,-3.1363,-3.1428,-3.1421,-3.145,-3.1461,-3.1492,-3.1541,-3.1481,-3.1482,-3.1489,-3.161,-3.1613,-3.1623,-3.1541,-3.1543,-3.1545,-3.1606,0,-3.1031,-3.1119,-3.1138,-3.1214,-3.1258,-3.1264,-3.1307,-3.1342,-3.1362,-3.1401,-3.1423,-3.1468,-3.1457,-3.1474,-3.1504,-3.1528,-3.1565,-3.1524,-3.1577,-3.1579,-3.1565,-3.1634,-3.1638,-3.1694,-3.1614,-3.1615,-3.1616,0,-3.1116,-3.1157,-3.1237,-3.1281,-3.1301,-3.1338,-3.1384,-3.1422,-3.1461,-3.1474,-3.1505,-3.1514,-3.1563,-3.1541,-3.1608,-3.158,-3.1602,-3.1617,-3.162,-3.1624,-3.1599,-3.1639,-3.1713,-3.172,-3.1629,-3.1628,-3.1627,0,-3.1151,-3.1228,-3.1285,-3.1306,-3.136,-3.1386,-3.1409,-3.1447,-3.1475,-3.1514,-3.1532,-3.1577,-3.1601,-3.1635,-3.1654,-3.1637,-3.1718,-3.1699,-3.1729,-3.1728,-3.1745,-3.1743,-3.1822,-3.1762,-3.1762,-3.1761,-3.1761,0,-3.1218,-3.1266,-3.1301,-3.1336,-3.139,-3.1411,-3.1463,-3.1486,-3.1519,-3.1557,-3.1566,-3.1601,-3.1625,-3.1664,-3.1679,-3.1731,-3.1742,-3.1752,-3.1755,-3.1751,-3.1749,-3.1765,-3.1761,-3.1764,-3.1763,-3.1763,-3.1762,0,-3.1267,-3.1293,-3.1355,-3.1401,-3.1413,-3.145,-3.1488,-3.1522,-3.1542,-3.159,-3.1603,-3.1634,-3.168,-3.1703,-3.1759,-3.1769,-3.1827,-3.1829,-3.1814,-3.1815,-3.1843,-3.1839,-3.1933,-3.1946,-3.1879,-3.1879,-3.188,0,-3.1307,-3.1344,-3.1394,-3.142,-3.1444,-3.1487,-3.1516,-3.1537,-3.1566,-3.1613,-3.164,-3.1686,-3.1724,-3.1796,-3.1823,-3.1866,-3.1867,-3.1897,-3.1874,-3.1867,-3.1866,-3.1863,-3.1866,-3.1901,-3.1902,-3.1902,-3.1903,0,-3.1375,-3.1385,-3.1427,-3.1472,-3.1506,-3.1543,-3.1579,-3.16,-3.1627,-3.1659,-3.1706,-3.1735,-3.1793,-3.1837,-3.1882,-3.1904,-3.1907,-3.191,-3.1919,-3.1914,-3.1903,-3.1907,-3.1824,-3.1908,-3.1907,-3.1907,-3.1906,-3.1906,-3.1419,-3.1452,-3.1491,-3.1537,-3.1566,-3.1599,-3.1632,-3.1657,-3.1697,-3.1746,-3.1756,-3.1805,-3.1842,-3.1902,-3.1926,-3.1963,-3.1957,-3.197,-3.1973,-3.1975,-3.1976,-3.1898,-3.1972,-3.1971,-3.1971,-3.1971,-3.1971,0,-3.1486,-3.1512,-3.1553,-3.1603,-3.1638,-3.164,-3.1679,-3.1708,-3.1751,-3.1786,-3.1823,-3.1876,-3.1919,-3.1949,-3.1993,-3.2017,-3.2019,-3.2028,-3.2025,-3.203,-3.198,-3.1967,-3.2025,-3.2025,-3.2025,-3.2025,-3.2025,-3.2025,-3.1525,-3.1579,-3.1595,-3.1663,-3.1688,-3.1737,-3.1759,-3.1789,-3.1817,-3.1876,-3.1912,-3.1932,-3.1964,-3.201,-3.2049,-3.2057,-3.2071,-3.2079,-3.2087,-3.2039,-3.2034,-3.2028,-3.2016,-3.2083,-3.2083,-3.2133,-3.2134,-3.2134]}]]